| time (UTC) | temp C | wind direction | speed KPH | gust KPH | rain 1hr cm | rain 24hr cm | rain mn cm | humidity % | barometer mb |
| 20260503060206 | 0 | 255 | 0.0 | 0.0 | 0.00 | 0.00 | 0.00 | 83 | 1016.6 |
| 20260503054203 | 0 | 255 | 0.0 | 0.0 | 0.00 | 0.00 | 0.00 | 81 | 1016.6 |
| 20260503053201 | 0 | 255 | 0.0 | 0.0 | 0.00 | 0.00 | 0.00 | 82 | 1016.6 |
| 20260503052057 | 0 | 255 | 0.0 | 0.0 | 0.00 | 0.00 | 0.00 | 85 | 1016.6 |
| 20260503051023 | 0 | 255 | 0.0 | 0.0 | 0.00 | 0.00 | 0.00 | 83 | 1016.6 |
| 20260503050013 | 0 | 255 | 0.0 | 0.0 | 0.00 | 0.00 | 0.00 | 82 | 1016.6 |
| 20260503044958 | 0 | 255 | 0.0 | 0.0 | 0.00 | 0.00 | 0.00 | 81 | 1016.9 |
| 20260503043956 | 0 | 255 | 0.0 | 0.0 | 0.00 | 0.00 | 0.00 | 81 | 1016.6 |
| 20260503042955 | 0 | 255 | 0.0 | 0.0 | 0.00 | 0.00 | 0.00 | 79 | 1016.6 |
| 20260503041953 | 0 | 255 | 0.0 | 0.0 | 0.00 | 0.00 | 0.00 | 78 | 1016.9 |
| 20260503040952 | 0 | 255 | 0.0 | 0.0 | 0.00 | 0.00 | 0.00 | 77 | 1016.9 |
| 20260503035950 | 0 | 255 | 0.0 | 0.0 | 0.00 | 0.00 | 0.00 | 77 | 1016.9 |
| 20260503034948 | 0 | 255 | 0.0 | 0.0 | 0.00 | 0.00 | 0.00 | 76 | 1016.9 |
| 20260503033947 | 0 | 255 | 0.0 | 0.0 | 0.00 | 0.00 | 0.00 | 74 | 1016.9 |
| 20260503032945 | 1 | 255 | 0.0 | 0.0 | 0.00 | 0.00 | 0.00 | 74 | 1016.9 |
| 20260503031944 | 1 | 255 | 0.0 | 0.0 | 0.00 | 0.00 | 0.00 | 73 | 1016.9 |
| 20260503030942 | 2 | 255 | 0.0 | 0.0 | 0.00 | 0.00 | 0.00 | 72 | 1016.9 |
| 20260503025941 | 2 | 255 | 0.0 | 0.0 | 0.00 | 0.00 | 0.00 | 71 | 1016.9 |
| 20260503024941 | 2 | 255 | 0.0 | 0.0 | 0.00 | 0.00 | 0.00 | 70 | 1016.9 |
| 20260503023939 | 3 | 255 | 0.0 | 0.0 | 0.00 | 0.00 | 0.00 | 68 | 1016.9 |
| 20260503022937 | 3 | 255 | 0.0 | 0.0 | 0.00 | 0.00 | 0.00 | 66 | 1016.9 |
| 20260503021936 | 5 | 255 | 0.0 | 0.0 | 0.00 | 0.00 | 0.00 | 63 | 1016.6 |
| 20260503020935 | 5 | 255 | 0.0 | 0.0 | 0.00 | 0.00 | 0.00 | 63 | 1016.6 |
| 20260503015933 | 5 | 255 | 0.0 | 0.0 | 0.00 | 0.00 | 0.00 | 63 | 1016.6 |
| 20260503014931 | 5 | 255 | 0.0 | 0.0 | 0.00 | 0.00 | 0.00 | 63 | 1016.9 |
| 20260503013930 | 5 | 255 | 0.0 | 0.0 | 0.00 | 0.00 | 0.00 | 65 | 1016.9 |
| 20260503012928 | 5 | 255 | 0.0 | 0.0 | 0.00 | 0.00 | 0.00 | 65 | 1016.6 |
| 20260503011926 | 6 | 255 | 0.0 | 0.0 | 0.00 | 0.00 | 0.00 | 63 | 1016.6 |
| 20260503010925 | 6 | 255 | 0.0 | 0.0 | 0.00 | 0.00 | 0.00 | 62 | 1016.6 |
| 20260503005923 | 6 | 255 | 0.0 | 0.0 | 0.00 | 0.00 | 0.00 | 63 | 1016.6 |
| 20260503004922 | 7 | 255 | 0.0 | 0.0 | 0.00 | 0.00 | 0.00 | 59 | 1016.6 |
| 20260503003920 | 7 | 255 | 0.0 | 0.0 | 0.00 | 0.00 | 0.00 | 55 | 1016.6 |
| 20260503002920 | 8 | 255 | 0.0 | 0.0 | 0.00 | 0.00 | 0.00 | 54 | 1016.6 |
| 20260503001918 | 8 | 243 | 0.0 | 0.0 | 0.00 | 0.00 | 0.00 | 53 | 1016.3 |
| 20260503000917 | 8 | 259 | 0.0 | 0.0 | 0.00 | 0.00 | 0.00 | 50 | 1016.3 |
| 20260502235844 | 8 | 264 | 0.0 | 0.0 | 0.00 | 0.00 | 0.00 | 48 | 1016.3 |
| 20260502234842 | 9 | 264 | 0.0 | 0.0 | 0.00 | 0.00 | 0.00 | 47 | 1016.3 |
| 20260502233841 | 9 | 284 | 0.0 | 6.4 | 0.00 | 0.00 | 0.00 | 47 | 1016.3 |
| 20260502232839 | 9 | 291 | 0.0 | 6.4 | 0.00 | 0.00 | 0.00 | 46 | 1016.3 |
| 20260502231806 | 9 | 261 | 0.0 | 8.0 | 0.00 | 0.00 | 0.00 | 48 | 1016.6 |
| 20260502230630 | 10 | 264 | 3.2 | 8.0 | 0.00 | 0.00 | 0.00 | 44 | 1016.6 |
| 20260502225630 | 9 | 281 | 1.6 | 6.4 | 0.00 | 0.00 | 0.00 | 48 | 1016.6 |
| 20260502224628 | 9 | 297 | 1.6 | 14.5 | 0.00 | 0.00 | 0.00 | 46 | 1016.6 |
| 20260502223626 | 10 | 266 | 3.2 | 14.5 | 0.00 | 0.00 | 0.00 | 45 | 1016.6 |
| 20260502222624 | 9 | 312 | 3.2 | 8.0 | 0.00 | 0.03 | 0.00 | 46 | 1016.6 |
| 20260502221623 | 9 | 268 | 1.6 | 14.5 | 0.00 | 0.08 | 0.00 | 46 | 1016.6 |
| 20260502220621 | 9 | 310 | 3.2 | 14.5 | 0.00 | 0.08 | 0.00 | 45 | 1016.6 |
| 20260502215620 | 9 | 293 | 3.2 | 12.9 | 0.00 | 0.08 | 0.00 | 45 | 1016.6 |
| 20260502214619 | 9 | 268 | 3.2 | 9.7 | 0.00 | 0.08 | 0.00 | 45 | 1016.6 |
| 20260502213618 | 9 | 266 | 3.2 | 9.7 | 0.00 | 0.08 | 0.00 | 46 | 1016.6 |
| 20260502212617 | 9 | 282 | 3.2 | 9.7 | 0.00 | 0.08 | 0.00 | 46 | 1016.6 |
| 20260502211616 | 8 | 303 | 1.6 | 14.5 | 0.00 | 0.08 | 0.00 | 44 | 1016.6 |
| 20260502210614 | 9 | 322 | 6.4 | 16.1 | 0.00 | 0.08 | 0.00 | 43 | 1016.6 |
| 20260502205614 | 8 | 272 | 3.2 | 16.1 | 0.00 | 0.08 | 0.00 | 47 | 1016.9 |
| 20260502204613 | 8 | 335 | 3.2 | 11.3 | 0.00 | 0.08 | 0.00 | 46 | 1016.9 |
| 20260502203612 | 9 | 302 | 1.6 | 16.1 | 0.00 | 0.08 | 0.00 | 46 | 1016.9 |
| 20260502202611 | 8 | 294 | 3.2 | 11.3 | 0.00 | 0.08 | 0.00 | 49 | 1016.9 |
| 20260502201506 | 8 | 296 | 3.2 | 9.7 | 0.00 | 0.08 | 0.00 | 46 | 1017.3 |
| 20260502200504 | 8 | 310 | 4.8 | 9.7 | 0.00 | 0.08 | 0.00 | 47 | 1017.3 |
| 20260502195504 | 8 | 298 | 1.6 | 14.5 | 0.00 | 0.08 | 0.00 | 47 | 1017.3 |
| 20260502194501 | 8 | 279 | 1.6 | 14.5 | 0.00 | 0.08 | 0.00 | 47 | 1017.3 |
| 20260502193500 | 8 | 305 | 4.8 | 12.9 | 0.00 | 0.08 | 0.00 | 48 | 1017.6 |
| 20260502192427 | 8 | 301 | 3.2 | 12.9 | 0.00 | 0.08 | 0.00 | 50 | 1017.6 |
| 20260502191426 | 8 | 287 | 3.2 | 12.9 | 0.00 | 0.08 | 0.00 | 48 | 1017.6 |
| 20260502190424 | 8 | 274 | 3.2 | 17.7 | 0.00 | 0.08 | 0.00 | 50 | 1017.9 |
| 20260502185422 | 8 | 319 | 6.4 | 17.7 | 0.00 | 0.08 | 0.00 | 48 | 1017.9 |
| 20260502184420 | 8 | 306 | 4.8 | 16.1 | 0.00 | 0.08 | 0.00 | 52 | 1017.9 |
| 20260502183419 | 8 | 335 | 8.0 | 16.1 | 0.00 | 0.08 | 0.00 | 51 | 1017.9 |
| 20260502182418 | 8 | 266 | 3.2 | 12.9 | 0.00 | 0.08 | 0.00 | 48 | 1017.9 |
| 20260502181416 | 8 | 267 | 4.8 | 12.9 | 0.00 | 0.08 | 0.00 | 48 | 1017.9 |
| 20260502180414 | 8 | 282 | 3.2 | 14.5 | 0.00 | 0.08 | 0.00 | 52 | 1018.3 |
| 20260502170255 | 7 | 355 | 11.3 | 19.3 | 0.00 | 0.08 | 0.00 | 48 | 1018.6 |
| 20260502164251 | 7 | 323 | 0.0 | 19.3 | 0.00 | 0.08 | 0.00 | 51 | 1018.6 |
| 20260502163250 | 7 | 336 | 9.7 | 19.3 | 0.00 | 0.08 | 0.00 | 51 | 1018.6 |
| 20260502162249 | 7 | 329 | 11.3 | 16.1 | 0.00 | 0.08 | 0.00 | 54 | 1018.6 |
| 20260502161247 | 7 | 359 | 0.0 | 9.7 | 0.00 | 0.08 | 0.00 | 52 | 1018.6 |
| 20260502160245 | 7 | 274 | 3.2 | 19.3 | 0.00 | 0.08 | 0.00 | 56 | 1019.0 |
| 20260502152209 | 6 | 307 | 4.8 | 12.9 | 0.00 | 0.08 | 0.00 | 60 | 1018.6 |
| 20260502151208 | 6 | 315 | 4.8 | 17.7 | 0.00 | 0.08 | 0.00 | 59 | 1018.6 |
| 20260502150206 | 6 | 329 | 8.0 | 17.7 | 0.00 | 0.08 | 0.00 | 61 | 1018.6 |
| 20260502140127 | 5 | 330 | 6.4 | 16.1 | 0.00 | 0.08 | 0.00 | 70 | 1018.6 |
| 20260502123009 | 2 | 332 | 0.0 | 0.0 | 0.00 | 0.08 | 0.00 | 79 | 1018.3 |
| 20260502122008 | 2 | 337 | 0.0 | 0.0 | 0.00 | 0.08 | 0.00 | 81 | 1018.3 |
| 20260502121007 | 1 | 13 | 0.0 | 0.0 | 0.00 | 0.08 | 0.00 | 83 | 1018.3 |
| 20260502115002 | 1 | 322 | 0.0 | 0.0 | 0.00 | 0.08 | 0.00 | 84 | 1017.9 |
| 20260502114001 | 0 | 311 | 0.0 | 0.0 | 0.00 | 0.08 | 0.00 | 85 | 1017.9 |
| 20260502112928 | 0 | 340 | 0.0 | 0.0 | 0.00 | 0.08 | 0.00 | 86 | 1017.9 |
| 20260502111926 | 0 | 340 | 0.0 | 0.0 | 0.00 | 0.08 | 0.00 | 86 | 1017.9 |
| 20260502110924 | 0 | 340 | 0.0 | 0.0 | 0.00 | 0.08 | 0.00 | 86 | 1017.9 |
| 20260502105923 | 0 | 340 | 0.0 | 0.0 | 0.00 | 0.08 | 0.00 | 86 | 1017.6 |
| 20260502104921 | 0 | 340 | 0.0 | 0.0 | 0.00 | 0.08 | 0.00 | 86 | 1017.6 |
| 20260502103815 | 0 | 327 | 0.0 | 0.0 | 0.00 | 0.08 | 0.00 | 86 | 1017.6 |
| 20260502102813 | 0 | 320 | 0.0 | 0.0 | 0.00 | 0.10 | 0.00 | 86 | 1017.6 |
| 20260502101812 | 0 | 328 | 0.0 | 0.0 | 0.00 | 0.10 | 0.00 | 85 | 1017.6 |
| 20260502100810 | 0 | 338 | 0.0 | 8.0 | 0.00 | 0.13 | 0.00 | 85 | 1017.6 |
| 20260502090804 | 0 | 276 | 0.0 | 0.0 | 0.00 | 0.36 | 0.00 | 84 | 1017.3 |
| 20260502071508 | 2 | 281 | 0.0 | 0.0 | 0.00 | 0.46 | 0.00 | 79 | 1016.9 |
| 20260502070507 | 2 | 266 | 0.0 | 0.0 | 0.00 | 0.46 | 0.00 | 78 | 1016.9 |
| 20260502065506 | 2 | 278 | 0.0 | 0.0 | 0.00 | 0.46 | 0.00 | 77 | 1016.9 |
| 20260502064504 | 2 | 274 | 0.0 | 4.8 | 0.00 | 0.46 | 0.00 | 77 | 1016.9 |
| 20260502063502 | 2 | 273 | 0.0 | 8.0 | 0.00 | 0.46 | 0.00 | 77 | 1016.9 |